Temp
65 66 65 66 66 66 66 67 67 67 67 69 69 71 69 68 64 61 60 60 61 64 67 66 67 69 68 66 67 67 68 62 64 68 65 63 61 54 52 51 52 51 48 49 50 50 51 52 53 54 55 56 56 55 55 54 54 55 55 54 54 54 53 53 53 55 58 61 62 61 59 60 61 60
66 65 66 67 66 66 67 66 65 67 67 68 68 70 70 70 67 65 62 59 62 62 64 66 65 67 68 68 66 67 67 57 64 67 67 64 61 53 51 51 51 51 50 48 49 50 51 51 52 53 54 54 54 54 55 54 54 55 54 52 53 55 56 56 56 58 58 59 58 58 59 60 60 61
66 66 65 66 66 66 65 65 66 65 67 68 70 68 69 69 69 67 65 60 60 63 61 63 66 65 66 68 66 66 66 62 63 65 65 66 56 56 55 51 50 51 50 49 49 52 52 51 51 51 52 53 53 53 54 54 54 53 53 52 52 55 55 56 55 57 58 58 59 59 59 59 59 59
67 66 66 66 66 65 66 66 65 65 65 66 68 68 68 68 67 68 67 63 59 62 62 63 64 64 63 65 66 65 66 64 58 66 64 63 58 66 65 53 50 50 49 49 49 50 51 51 51 50 49 49 50 51 51 52 51 51 51 52 52 53 54 54 54 55 56 57 57 57 57 58 58 58
67 68 67 66 65 66 66 66 66 66 66 66 66 67 68 67 67 68 66 63 60 60 62 62 63 63 64 65 65 64 63 63 65 62 64 64 63 64 65 64 51 48 49 48 48 49 49 49 49 46 46 48 48 48 49 50 49 49 49 48 50 51 53 53 53 51 53 55 56 55 56 56 56 55
66 66 67 67 65 66 67 66 69 68 67 69 69 68 68 67 66 66 67 65 64 59 61 62 64 63 64 64 65 62 60 61 63 65 64 65 65 64 64 66 62 47 49 48 48 48 48 48 48 48 47 47 48 48 49 49 48 48 47 47 49 51 51 51 50 50 51 53 53 54 54 54 54 56
68 66 66 66 66 65 65 65 66 66 67 69 68 66 67 66 65 66 67 66 63 62 60 61 63 62 62 61 63 64 63 62 63 64 63 64 64 64 63 64 66 49 48 47 48 48 48 48 48 48 48 48 47 47 47 48 47 47 47 47 48 48 47 47 47 48 49 52 53 53 53 52 53 54
66 66 66 66 65 65 65 65 65 66 66 66 66 65 65 64 63 63 64 66 65 64 62 60 64 62 62 63 65 65 65 63 63 63 64 64 64 63 63 63 64 56 49 48 48 49 48 48 48 48 48 48 48 47 48 47 47 47 47 47 46 46 46 46 46 46 48 50 51 52 52 52 53 55
65 66 65 67 66 65 65 64 65 65 64 67 66 65 66 65 64 63 64 64 65 64 62 60 60 61 62 63 62 63 63 64 64 64 62 62 62 60 61 62 62 53 49 49 49 49 49 48 49 48 48 48 48 47 47 47 47 47 48 47 47 46 46 46 45 45 45 46 46 49 51 51 52 55
63 63 65 66 66 66 65 64 64 64 64 65 64 65 66 67 64 62 62 62 62 63 62 61 60 59 59 61 59 61 61 60 60 61 62 62 61 59 58 60 60 61 61 59 58 52 53 52 49 49 49 48 47 48 47 47 47 47 47 47 47 46 46 45 44 44 44 44 44 44 46 49 51 54
63 63 63 63 64 63 65 65 63 62 62 62 63 63 62 64 63 62 62 63 62 62 61 61 60 60 59 58 59 61 60 60 59 56 57 58 62 60 58 57 60 60 58 55 50 51 51 49 52 51 49 48 47 48 47 47 48 48 47 46 46 46 45 45 44 44 44 44 44 44 44 45 47 50
62 62 62 63 63 63 63 64 64 63 62 61 61 62 62 62 62 62 61 61 62 61 61 60 60 60 59 60 60 61 60 59 59 58 54 53 55 56 57 57 56 58 57 57 58 55 54 54 53 49 49 48 47 47 49 50 50 49 47 46 45 45 45 45 45 44 44 44 44 44 44 44 44 46
64 65 65 65 64 62 60 56 57 58 58 61 60 61 61 60 61 61 62 61 61 60 60 60 59 59 59 58 57 57 56 55 53 54 54 53 55 56 55 58 59 57 55 56 57 58 56 56 57 58 59 59 53 55 50 52 50 48 46 45 45 45 45 45 45 45 45 45 45 44 44 44 44 44
65 64 65 65 60 56 55 53 49 48 49 53 61 62 61 61 61 61 60 60 61 60 60 59 57 56 55 54 54 54 54 54 55 54 53 52 54 54 54 57 57 56 54 53 53 56 57 55 56 59 58 58 56 58 59 58 51 48 45 45 45 45 45 45 45 44 44 44 44 44 44 44 43 43
65 65 66 66 61 57 54 54 45 45 45 47 49 49 51 54 59 58 57 59 60 59 57 55 54 52 52 54 55 54 54 54 53 52 53 52 52 51 50 50 55 57 53 51 51 54 57 55 54 57 58 57 56 57 57 48 47 46 45 45 45 45 45 45 45 44 43 43 43 43 43 43 43 43
64 64 64 64 63 61 61 60 54 48 43 42 41 41 41 40 39 43 55 58 57 56 54 51 52 52 53 53 54 54 53 53 52 53 52 51 50 49 49 50 49 55 54 50 50 51 57 56 54 54 56 56 56 56 50 46 46 46 45 45 45 45 45 44 44 44 43 42 42 42 42 42 42 42
63 63 63 63 62 62 55 57 56 54 50 43 41 42 42 41 41 40 39 42 55 57 54 52 51 51 52 52 53 51 50 51 50 51 51 51 50 50 48 50 50 52 53 50 49 49 53 55 54 53 55 56 56 56 49 46 46 46 45 45 44 44 44 44 44 44 43 42 41 41 41 41 41 42
61 62 62 63 62 61 60 60 58 58 56 56 56 55 54 52 48 42 41 41 42 49 54 52 51 51 52 52 52 51 50 49 49 49 49 49 48 48 47 49 48 50 53 49 48 47 52 55 52 52 55 56 55 56 51 46 46 45 45 44 44 44 44 44 44 44 44 43 42 42 42 42 42 42
59 60 60 61 61 60 60 60 58 59 58 57 56 55 54 55 54 54 54 54 53 52 52 53 52 51 52 51 51 51 52 50 50 50 48 48 48 48 50 50 51 52 54 51 49 44 50 54 52 52 54 55 55 56 51 47 46 45 45 44 44 44 43 44 44 44 44 44 44 43 43 42 42 42
59 60 60 60 59 59 58 48 45 52 59 58 56 54 53 53 51 49 44 41 43 48 52 53 53 53 49 44 49 48 50 51 51 50 50 50 49 49 48 47 50 49 54 54 51 46 48 53 50 51 54 54 53 55 56 49 47 46 45 44 44 43 44 44 44 44 44 44 44 43 43 43 42 41
58 57 59 60 59 58 56 44 42 44 50 57 55 54 52 51 51 49 48 41 39 38 38 37 37 36 36 37 37 38 36 44 46 49 48 48 49 46 45 47 47 48 51 53 52 47 46 51 51 50 52 52 51 52 54 56 50 46 45 44 44 45 45 45 44 44 44 44 44 43 43 43 42 41
57 53 47 54 59 56 53 39 41 43 53 57 55 54 51 50 49 48 47 47 45 37 38 37 38 38 39 37 37 37 38 38 41 48 46 47 48 45 46 45 46 48 50 51 51 45 45 50 52 49 50 51 52 53 54 54 53 49 48 47 46 45 45 45 45 44 44 44 43 44 43 43 43 52
57 55 50 43 48 51 44 37 39 40 50 55 54 53 51 49 49 48 49 50 50 51 50 50 49 46 44 48 50 49 39 38 42 49 48 49 47 45 45 45 45 44 47 52 52 44 46 47 49 47 44 43 49 52 53 53 53 54 54 55 55 48 45 45 45 45 44 44 43 44 43 42 43 53
56 55 54 47 38 38 37 38 38 39 42 52 52 53 53 51 48 49 49 48 49 49 49 49 49 48 50 50 50 50 50 49 49 49 49 49 48 47 46 46 46 44 46 52 51 45 46 46 45 48 44 39 38 47 50 50 52 53 54 54 54 50 48 47 47 45 44 44 44 44 43 43 42 52
56 55 54 52 39 37 38 38 37 38 39 42 52 51 50 48 46 46 50 45 41 48 48 48 48 49 50 50 50 50 50 50 50 49 49 49 49 47 45 45 44 44 47 51 45 46 42 44 42 44 43 44 43 43 47 49 52 52 53 53 52 53 54 53 51 54 49 46 45 43 42 42 42 47
56 55 53 52 41 37 37 37 37 38 39 40 49 44 37 35 37 47 49 49 50 49 49 49 49 49 49 49 49 49 49 49 48 49 50 50 49 49 48 45 43 41 43 49 43 45 42 41 42 41 42 41 42 44 43 45 49 51 52 53 52 52 52 51 52 52 53 55 56 52 52 44 43 41
54 53 51 47 37 37 37 37 37 38 38 41 42 35 36 36 36 42 49 48 48 48 48 47 46 47 47 47 47 47 47 48 48 48 48 47 47 46 46 46 46 45 46 47 48 46 43 41 43 41 40 42 40 41 42 42 44 49 48 50 51 51 52 52 51 51 52 53 55 48 45 43 40 40
53 53 51 46 37 37 37 37 37 37 39 41 35 36 35 37 41 48 48 48 46 46 45 45 45 46 46 46 46 46 46 45 45 43 43 45 46 45 45 45 45 46 46 46 45 45 44 42 41 43 42 41 39 38 38 43 43 44 44 47 49 50 51 51 50 50 51 53 54 55 54 53 55 54
52 42 37 36 37 37 37 36 37 38 36 34 35 35 37 41 49 47 47 46 45 45 43 43 44 44 45 45 44 43 42 42 43 43 43 44 45 45 45 44 45 45 44 44 45 45 45 43 42 43 43 42 39 40 40 38 40 41 42 42 42 47 49 50 49 49 50 51 50 50 50 51 51 53
36 36 36 36 36 38 41 47 47 46 43 36 35 36 40 48 47 46 46 45 43 43 43 42 42 43 43 42 42 42 42 42 42 42 42 42 42 44 44 43 44 47 47 47 47 47 46 45 44 43 41 41 41 39 40 39 38 41 42 41 43 44 46 47 48 49 48 48 49 49 50 52 52 51
44 42 43 43 39 39 36 38 39 40 40 43 45 48 47 46 46 45 45 43 43 41 41 40 40 41 41 42 42 41 41 41 42 43 41 41 42 42 43 41 40 42 46 48 48 47 47 46 45 44 40 40 40 40 40 40 38 40 42 43 42 37 43 46 46 47 48 48 49 50 51 51 51 49
47 45 39 41 45 46 46 47 48 47 47 44 42 46 47 46 45 42 39 39 44 43 41 40 40 40 41 40 41 42 42 42 43 43 42 41 42 42 42 39 38 39 41 43 45 47 43 46 45 44 42 41 39 40 41 40 39 40 40 42 42 44 44 44 45 47 48 47 46 47 48 49 49 49
47 48 48 46 46 45 43 44 42 46 45 44 45 44 45 46 47 47 46 44 42 42 41 40 39 39 41 40 41 41 41 42 42 44 42 42 41 41 40 37 37 37 37 39 42 43 44 45 46 45 44 43 43 41 39 37 39 41 41 42 43 43 44 46 46 46 47 45 44 44 45 47 48 48
47 45 46 46 45 43 45 44 43 42 43 40 42 41 40 44 45 44 44 44 43 42 40 41 40 38 38 38 40 40 39 40 42 42 39 40 40 38 37 36 37 38 38 38 40 41 42 43 43 44 44 43 44 43 42 39 38 41 42 43 43 42 44 46 46 47 45 43 41 41 42 44 47 47
46 46 45 44 44 44 44 43 43 42 42 42 42 42 42 44 43 41 43 43 41 40 40 40 40 40 39 38 38 36 37 37 39 40 40 40 39 38 37 36 36 37 37 37 38 40 41 40 40 38 39 40 40 44 45 44 41 40 42 42 42 42 43 45 45 45 44 42 42 38 38 41 44 47
46 47 46 45 44 44 43 42 41 42 42 41 41 42 42 43 43 41 42 41 42 40 40 40 39 39 39 38 38 38 37 37 38 38 37 38 38 38 38 37 37 37 38 38 38 40 41 40 38 35 33 34 34 35 38 44 43 43 40 39 42 42 43 44 44 44 43 42 41 39 38 37 40 43
46 46 45 45 42 43 43 42 42 40 42 42 40 42 42 42 43 42 43 39 43 41 41 40 40 39 39 39 38 38 38 37 37 37 37 38 38 38 37 37 36 37 36 38 39 39 39 37 37 34 32 32 32 33 37 40 40 42 44 39 40 41 41 40 41 41 43 42 41 40 37 37 38 39
46 46 43 45 46 45 43 42 42 41 42 41 42 42 42 43 44 44 45 45 42 42 42 41 40 39 39 39 38 37 37 37 37 37 37 38 37 37 36 35 35 36 37 37 38 38 38 37 35 35 33 31 31 33 34 40 41 41 41 41 39 39 39 39 39 41 40 41 39 39 38 38 37 36
47 45 44 42 42 43 42 41 42 42 42 43 42 41 40 42 43 42 41 42 41 41 41 40 39 39 38 38 38 36 35 35 35 36 36 37 37 36 35 35 34 36 36 35 37 38 38 37 36 35 34 33 32 33 35 35 36 41 42 40 41 39 40 40 40 39 39 39 40 40 37 36 37 36
46 46 45 44 43 44 44 40 42 43 42 42 42 43 42 41 41 41 42 42 41 40 41 40 39 38 39 39 37 37 36 35 35 36 36 36 36 35 35 35 35 34 34 34 35 36 38 38 37 37 36 36 37 38 38 37 39 41 42 41 40 39 40 41 39 39 38 39 39 37 38 38 37 38
45 44 44 45 45 44 42 43 44 41 43 41 43 40 41 41 42 41 42 41 39 40 41 40 39 37 38 38 38 36 35 35 36 36 35 35 35 35 34 34 34 35 34 34 34 36 37 39 40 35 37 38 37 37 35 33 33 38 41 44 40 36 36 37 38 37 37 38 37 37 37 37 37 38
46 45 44 44 44 44 44 42 43 42 41 43 42 42 40 41 43 38 41 38 38 38 40 40 39 39 39 39 38 37 36 35 35 35 35 35 35 35 35 35 34 35 34 34 35 36 39 42 41 41 40 37 36 33 32 34 35 37 39 41 42 39 37 36 36 36 38 38 37 36 36 37 38 37
44 44 43 44 44 42 40 42 42 43 42 42 41 40 42 43 44 43 43 42 41 41 40 40 40 40 39 39 38 38 37 36 36 35 35 35 34 34 34 35 35 35 35 36 37 38 39 40 42 41 41 40 37 36 34 36 37 37 38 40 39 39 38 36 35 35 36 36 35 36 38 37 37 35
45 44 44 44 40 42 42 43 42 43 41 40 42 41 43 42 42 41 41 41 40 40 41 40 39 39 38 38 37 37 37 37 36 35 35 35 34 35 34 35 35 35 36 36 37 38 40 41 42 42 41 40 40 38 36 36 37 38 39 38 38 37 36 37 37 36 36 35 34 35 35 35 35 35
45 42 42 43 43 42 42 42 41 41 42 42 42 42 41 41 40 41 40 38 38 37 38 38 38 38 38 37 36 35 35 35 35 36 36 36 35 35 35 35 35 35 36 36 36 37 40 40 42 42 41 41 40 38 37 37 37 37 37 36 35 36 36 36 35 35 35 35 34 34 34 34 34 34
MSLP
1022.52 1022.52 1022.56 1022.52 1022.60 1022.68 1022.64 1022.52 1022.40 1022.36 1022.20 1022.12 1022.16 1022.04 1022.04 1022.16 1022.72 1023.32 1023.72 1024.04 1023.96 1024.08 1024.04 1023.84 1024.08 1024.08 1024.12 1024.16 1024.16 1024.08 1024.12 1024.32 1024.00 1023.84 1023.92 1024.00 1024.16 1024.28 1024.04 1023.92 1023.84 1023.76 1023.72 1023.60 1023.48 1023.36 1023.24 1023.08 1022.88 1022.72 1022.60 1022.52 1022.44 1022.32 1022.20 1022.12 1022.00 1021.92 1021.88 1021.80 1021.72 1021.68 1021.64 1021.64 1021.56 1021.48 1021.36 1021.28 1021.16 1021.04 1021.12 1021.20 1021.28 1021.48
1022.64 1022.72 1022.72 1022.64 1022.72 1022.80 1022.72 1022.80 1022.80 1022.64 1022.52 1022.44 1022.32 1022.28 1022.20 1022.12 1022.36 1022.76 1023.28 1024.16 1024.16 1024.28 1024.40 1024.28 1024.28 1024.32 1024.28 1024.24 1024.28 1024.20 1024.20 1024.52 1024.16 1024.00 1024.00 1024.12 1024.32 1024.44 1024.32 1024.24 1024.20 1024.08 1024.00 1023.88 1023.68 1023.52 1023.40 1023.24 1023.04 1022.84 1022.72 1022.64 1022.56 1022.52 1022.36 1022.28 1022.16 1022.04 1021.96 1021.88 1021.80 1021.68 1021.60 1021.52 1021.48 1021.40 1021.32 1021.20 1021.12 1021.08 1021.08 1021.12 1021.16 1021.24
1022.84 1022.88 1022.92 1022.84 1022.88 1022.88 1022.96 1022.96 1022.96 1022.92 1022.76 1022.64 1022.48 1022.52 1022.44 1022.44 1022.40 1022.64 1023.00 1023.72 1024.52 1024.48 1024.56 1024.64 1024.64 1024.60 1024.56 1024.40 1024.40 1024.40 1024.36 1024.52 1024.28 1024.08 1024.08 1024.08 1024.28 1024.08 1024.20 1024.28 1024.28 1024.24 1024.12 1024.00 1023.84 1023.68 1023.56 1023.44 1023.28 1023.12 1022.96 1022.80 1022.72 1022.64 1022.56 1022.48 1022.32 1022.16 1022.04 1021.92 1021.80 1021.72 1021.60 1021.52 1021.44 1021.32 1021.20 1021.12 1021.04 1020.92 1020.92 1020.92 1020.96 1021.00
1022.92 1023.00 1023.04 1023.04 1023.00 1023.04 1022.96 1023.00 1023.08 1023.12 1023.12 1023.00 1022.84 1022.80 1022.80 1022.84 1022.84 1022.84 1022.88 1023.44 1024.40 1024.72 1024.68 1024.72 1024.72 1024.80 1024.84 1024.68 1024.40 1024.40 1024.36 1024.48 1024.44 1024.16 1024.20 1024.28 1024.12 1023.80 1023.80 1024.20 1024.32 1024.32 1024.24 1024.16 1024.00 1023.84 1023.72 1023.56 1023.44 1023.32 1023.16 1023.00 1022.88 1022.76 1022.64 1022.52 1022.44 1022.32 1022.16 1022.04 1021.92 1021.76 1021.68 1021.56 1021.48 1021.36 1021.20 1021.08 1020.96 1020.88 1020.80 1020.80 1020.80 1020.80
1022.88 1022.92 1023.04 1023.16 1023.20 1023.16 1023.04 1023.12 1023.16 1023.16 1023.20 1023.20 1023.16 1023.08 1023.00 1023.12 1023.12 1023.00 1023.20 1023.60 1024.28 1024.80 1025.00 1024.80 1024.76 1024.88 1024.72 1024.56 1024.60 1024.52 1024.56 1024.52 1024.36 1024.28 1024.32 1024.28 1024.16 1024.04 1023.88 1023.88 1024.32 1024.40 1024.36 1024.24 1024.12 1023.96 1023.80 1023.68 1023.56 1023.44 1023.28 1023.12 1023.00 1022.84 1022.72 1022.56 1022.48 1022.32 1022.24 1022.12 1022.00 1021.88 1021.76 1021.64 1021.52 1021.40 1021.24 1021.08 1020.92 1020.84 1020.76 1020.68 1020.68 1020.68
1022.88 1022.92 1022.96 1023.00 1023.24 1023.20 1023.12 1023.16 1023.00 1023.16 1023.16 1023.12 1023.12 1023.20 1023.16 1023.24 1023.40 1023.36 1023.20 1023.48 1023.64 1024.44 1024.72 1024.64 1024.68 1024.68 1024.68 1024.36 1024.56 1024.64 1024.68 1024.64 1024.48 1024.28 1024.28 1024.24 1024.20 1024.24 1024.08 1023.80 1024.00 1024.44 1024.40 1024.32 1024.20 1024.04 1023.92 1023.76 1023.56 1023.44 1023.28 1023.16 1023.04 1022.92 1022.76 1022.64 1022.56 1022.44 1022.36 1022.24 1022.12 1021.96 1021.84 1021.68 1021.52 1021.36 1021.20 1021.08 1020.92 1020.80 1020.68 1020.60 1020.60 1020.56
1022.88 1023.00 1022.96 1022.96 1023.08 1023.20 1023.16 1023.20 1023.16 1023.24 1023.16 1023.04 1023.16 1023.40 1023.36 1023.48 1023.56 1023.48 1023.32 1023.36 1023.72 1023.96 1024.40 1024.56 1024.40 1024.52 1024.64 1024.64 1024.48 1024.48 1024.52 1024.56 1024.44 1024.24 1024.28 1024.24 1024.28 1024.28 1024.24 1024.04 1023.80 1024.28 1024.40 1024.36 1024.20 1024.08 1023.92 1023.76 1023.64 1023.48 1023.32 1023.20 1023.04 1022.92 1022.80 1022.64 1022.52 1022.44 1022.36 1022.28 1022.16 1022.04 1021.88 1021.72 1021.52 1021.36 1021.20 1021.04 1020.88 1020.76 1020.64 1020.52 1020.48 1020.40
1022.92 1022.96 1023.04 1023.04 1023.08 1023.04 1023.08 1023.12 1023.20 1023.20 1023.24 1023.20 1023.24 1023.40 1023.56 1023.64 1023.76 1023.76 1023.64 1023.44 1023.44 1023.64 1023.88 1024.44 1024.16 1024.40 1024.32 1024.40 1024.40 1024.40 1024.32 1024.40 1024.32 1024.24 1024.16 1024.12 1024.16 1024.20 1024.16 1024.04 1023.88 1024.04 1024.24 1024.24 1024.12 1024.00 1023.88 1023.72 1023.60 1023.44 1023.32 1023.16 1023.04 1022.92 1022.80 1022.68 1022.56 1022.44 1022.32 1022.20 1022.08 1021.96 1021.80 1021.64 1021.48 1021.36 1021.20 1021.04 1020.88 1020.72 1020.60 1020.44 1020.32 1020.20
1022.76 1022.84 1022.92 1022.88 1023.00 1023.08 1023.00 1023.12 1023.08 1023.16 1023.32 1023.20 1023.20 1023.24 1023.36 1023.44 1023.68 1023.80 1023.72 1023.64 1023.56 1023.60 1023.80 1024.28 1024.60 1024.56 1024.48 1024.48 1024.52 1024.52 1024.28 1024.04 1024.08 1024.12 1024.20 1024.20 1024.12 1024.16 1024.12 1023.96 1023.92 1023.92 1024.00 1024.00 1023.92 1023.84 1023.72 1023.56 1023.48 1023.36 1023.24 1023.12 1022.96 1022.88 1022.76 1022.64 1022.52 1022.44 1022.32 1022.24 1022.12 1021.92 1021.76 1021.60 1021.48 1021.36 1021.20 1021.08 1020.92 1020.72 1020.56 1020.40 1020.28 1020.12
1022.48 1022.64 1022.72 1022.88 1023.08 1023.04 1023.00 1023.04 1023.08 1023.16 1023.24 1023.32 1023.32 1023.32 1023.24 1023.28 1023.64 1023.76 1023.92 1023.88 1023.84 1023.76 1023.92 1023.96 1024.24 1024.64 1024.60 1024.32 1024.56 1024.60 1024.52 1024.36 1024.12 1024.04 1024.00 1023.96 1024.08 1024.12 1024.04 1023.88 1023.80 1023.76 1023.68 1023.64 1023.64 1023.56 1023.36 1023.28 1023.32 1023.20 1023.12 1023.00 1022.88 1022.72 1022.60 1022.48 1022.40 1022.32 1022.24 1022.16 1022.04 1021.88 1021.72 1021.60 1021.48 1021.32 1021.16 1021.00 1020.88 1020.76 1020.64 1020.44 1020.24 1020.04
1022.40 1022.56 1022.56 1022.64 1022.84 1023.16 1023.08 1023.00 1023.08 1023.24 1023.36 1023.36 1023.28 1023.40 1023.56 1023.52 1023.56 1023.68 1023.72 1023.76 1023.80 1023.80 1023.80 1024.00 1024.16 1024.20 1024.52 1024.64 1024.40 1024.40 1024.64 1024.40 1024.40 1024.44 1024.16 1023.88 1023.80 1023.96 1024.04 1023.88 1023.68 1023.64 1023.64 1023.60 1023.72 1023.60 1023.56 1023.36 1023.12 1022.96 1022.92 1022.80 1022.68 1022.56 1022.44 1022.28 1022.20 1022.16 1022.08 1022.00 1021.88 1021.76 1021.64 1021.56 1021.48 1021.32 1021.12 1020.96 1020.80 1020.64 1020.52 1020.40 1020.24 1020.00
1022.36 1022.44 1022.44 1022.56 1022.80 1023.12 1023.20 1022.92 1022.88 1023.04 1023.16 1023.32 1023.32 1023.40 1023.44 1023.48 1023.52 1023.56 1023.68 1023.68 1023.60 1023.68 1023.76 1023.84 1023.92 1024.20 1024.28 1024.12 1024.40 1024.40 1024.36 1024.12 1024.04 1024.52 1024.80 1024.48 1024.08 1023.96 1023.96 1023.88 1023.76 1023.56 1023.64 1023.48 1023.28 1023.16 1023.12 1022.88 1022.68 1022.60 1022.44 1022.40 1022.48 1022.36 1022.16 1022.00 1022.00 1022.00 1022.00 1021.92 1021.80 1021.60 1021.52 1021.40 1021.32 1021.20 1021.04 1020.88 1020.68 1020.52 1020.40 1020.24 1020.12 1019.92
1021.92 1022.00 1022.08 1022.24 1022.52 1022.80 1022.76 1022.76 1022.76 1022.76 1022.84 1023.08 1023.20 1023.40 1023.44 1023.56 1023.48 1023.48 1023.48 1023.52 1023.60 1023.68 1023.68 1023.80 1024.08 1024.08 1024.04 1024.28 1024.48 1024.40 1024.48 1024.68 1024.80 1024.88 1024.88 1024.68 1024.36 1024.16 1023.84 1023.44 1023.56 1023.80 1023.84 1023.52 1023.32 1023.00 1023.00 1022.84 1022.52 1022.28 1022.04 1021.96 1022.16 1021.96 1021.96 1021.72 1021.76 1021.84 1021.88 1021.84 1021.68 1021.52 1021.36 1021.24 1021.12 1021.04 1020.88 1020.76 1020.56 1020.40 1020.20 1020.08 1019.92 1019.80
1021.60 1021.64 1021.68 1021.80 1022.16 1022.40 1022.64 1022.72 1022.80 1022.92 1022.96 1022.96 1022.80 1023.00 1023.32 1023.48 1023.52 1023.44 1023.48 1023.52 1023.48 1023.44 1023.56 1023.88 1024.32 1024.32 1024.40 1024.64 1024.88 1024.88 1024.96 1025.12 1025.00 1024.84 1024.76 1024.64 1024.32 1024.16 1023.84 1023.28 1023.48 1023.88 1023.88 1023.64 1023.28 1022.92 1022.80 1022.88 1022.40 1022.08 1021.92 1021.84 1021.96 1021.72 1021.52 1021.52 1021.84 1021.80 1021.76 1021.64 1021.52 1021.36 1021.24 1021.12 1021.00 1020.88 1020.76 1020.64 1020.44 1020.28 1020.12 1019.96 1019.76 1019.60
1021.48 1021.52 1021.52 1021.56 1021.80 1022.20 1022.48 1022.76 1023.04 1023.16 1023.32 1023.40 1023.28 1023.32 1023.44 1023.60 1023.76 1023.76 1023.68 1023.64 1023.60 1023.60 1023.96 1024.52 1024.76 1024.84 1024.84 1024.76 1024.88 1024.92 1025.04 1025.00 1025.12 1025.00 1024.92 1024.72 1024.52 1024.32 1024.16 1023.68 1023.32 1023.64 1023.92 1023.76 1023.44 1022.76 1022.56 1022.72 1022.40 1022.04 1021.80 1021.72 1021.76 1021.64 1021.48 1021.72 1021.72 1021.68 1021.60 1021.48 1021.32 1021.16 1021.00 1020.88 1020.80 1020.72 1020.60 1020.48 1020.36 1020.20 1020.04 1019.84 1019.64 1019.48
1021.52 1021.52 1021.52 1021.56 1021.68 1021.84 1022.00 1022.24 1022.88 1023.48 1023.72 1023.76 1023.84 1024.00 1024.16 1024.28 1024.28 1024.12 1023.84 1023.80 1024.00 1024.20 1024.44 1024.88 1024.92 1025.00 1024.80 1024.84 1024.96 1025.00 1025.24 1025.16 1025.12 1024.96 1024.88 1024.80 1024.80 1024.68 1024.44 1024.12 1023.88 1023.48 1023.96 1023.96 1023.48 1022.80 1022.36 1022.36 1022.28 1021.96 1021.72 1021.64 1021.56 1021.56 1021.64 1021.64 1021.48 1021.36 1021.36 1021.24 1021.12 1020.96 1020.84 1020.72 1020.60 1020.44 1020.36 1020.28 1020.16 1020.00 1019.84 1019.64 1019.44 1019.28
1021.48 1021.44 1021.44 1021.44 1021.64 1021.76 1022.28 1022.44 1022.80 1023.40 1023.92 1024.28 1024.16 1024.16 1024.40 1024.60 1024.56 1024.52 1024.56 1024.56 1024.32 1024.32 1024.60 1024.84 1025.12 1025.16 1025.20 1025.08 1024.96 1025.56 1025.80 1025.76 1025.40 1025.04 1024.76 1024.76 1024.88 1024.84 1024.68 1024.24 1024.00 1023.88 1024.08 1024.00 1023.40 1022.80 1022.24 1022.12 1022.04 1021.84 1021.44 1021.36 1021.40 1021.28 1021.20 1021.32 1021.32 1021.16 1021.08 1021.00 1020.88 1020.76 1020.64 1020.52 1020.40 1020.24 1020.12 1020.00 1019.92 1019.76 1019.60 1019.40 1019.20 1019.00
1021.60 1021.56 1021.44 1021.36 1021.52 1021.80 1022.08 1022.28 1022.64 1022.96 1023.28 1023.60 1023.80 1024.00 1024.24 1024.56 1024.80 1024.92 1025.08 1025.08 1025.12 1025.00 1024.92 1025.08 1025.12 1025.36 1025.44 1025.32 1025.48 1025.76 1025.92 1025.80 1025.40 1025.28 1025.08 1025.08 1025.00 1024.88 1024.80 1024.72 1024.64 1024.40 1024.20 1024.12 1023.80 1023.08 1022.12 1021.88 1022.00 1021.76 1021.36 1021.28 1021.20 1021.00 1020.96 1021.12 1021.04 1020.88 1020.84 1020.76 1020.64 1020.52 1020.40 1020.28 1020.12 1019.96 1019.80 1019.68 1019.56 1019.40 1019.24 1019.08 1018.88 1018.72
1021.92 1021.80 1021.80 1021.72 1021.76 1022.00 1022.12 1022.36 1022.60 1022.76 1023.08 1023.36 1023.68 1024.00 1024.32 1024.52 1024.68 1024.88 1024.96 1025.08 1025.16 1025.32 1025.28 1025.32 1025.44 1025.56 1025.64 1025.72 1025.80 1025.80 1025.80 1025.76 1025.64 1025.56 1025.52 1025.40 1025.24 1025.04 1024.68 1024.32 1024.00 1023.84 1023.72 1023.84 1023.84 1023.40 1022.40 1022.08 1021.88 1021.44 1021.24 1021.08 1020.96 1020.72 1020.60 1020.64 1020.68 1020.60 1020.56 1020.48 1020.36 1020.24 1020.12 1019.96 1019.80 1019.60 1019.48 1019.32 1019.20 1019.04 1018.88 1018.76 1018.56 1018.40
1022.08 1022.04 1022.00 1022.00 1022.16 1022.32 1022.56 1023.08 1023.12 1023.04 1023.12 1023.40 1023.76 1024.16 1024.52 1024.80 1025.12 1025.52 1025.96 1025.96 1025.80 1025.64 1025.56 1025.56 1025.60 1025.64 1025.88 1026.12 1026.04 1026.08 1025.96 1025.72 1025.56 1025.48 1025.28 1025.16 1024.84 1024.48 1024.12 1023.88 1023.44 1023.56 1023.28 1023.32 1023.32 1023.12 1022.52 1022.08 1021.88 1021.44 1021.16 1021.00 1020.72 1020.48 1020.32 1020.20 1020.24 1020.28 1020.32 1020.24 1020.08 1019.96 1019.76 1019.64 1019.48 1019.32 1019.16 1018.96 1018.84 1018.72 1018.56 1018.44 1018.24 1018.04
1022.44 1022.52 1022.44 1022.28 1022.40 1022.64 1023.08 1023.68 1023.64 1023.60 1023.40 1023.52 1023.88 1024.20 1024.56 1024.88 1025.08 1025.44 1025.88 1026.12 1026.12 1026.12 1026.16 1026.16 1026.20 1026.24 1026.28 1026.36 1026.40 1026.36 1026.44 1026.16 1025.92 1025.44 1025.04 1024.56 1024.44 1024.48 1024.12 1023.60 1023.48 1023.20 1023.12 1023.08 1023.20 1023.24 1022.80 1022.08 1021.84 1021.40 1021.12 1020.92 1020.76 1020.44 1020.08 1019.80 1019.80 1020.00 1019.96 1019.84 1019.68 1019.52 1019.40 1019.28 1019.12 1019.00 1018.88 1018.72 1018.56 1018.36 1018.20 1018.08 1017.92 1017.72
1022.72 1023.20 1023.28 1022.92 1022.80 1023.12 1023.72 1024.16 1024.08 1024.00 1023.72 1023.64 1023.88 1024.20 1024.60 1024.88 1025.12 1025.56 1025.80 1025.84 1026.04 1026.16 1026.16 1026.20 1026.16 1026.16 1026.16 1026.20 1026.16 1026.16 1026.16 1026.20 1026.00 1025.40 1025.00 1024.72 1024.68 1024.36 1024.00 1023.72 1023.36 1023.08 1023.00 1022.76 1023.12 1023.40 1022.72 1021.96 1021.48 1021.28 1021.00 1020.84 1020.44 1020.16 1019.92 1019.84 1019.72 1019.68 1019.48 1019.28 1019.20 1019.08 1019.00 1018.92 1018.76 1018.64 1018.52 1018.36 1018.24 1018.08 1018.00 1017.84 1017.68 1017.12
1022.96 1023.32 1023.72 1023.80 1023.60 1023.76 1024.32 1024.44 1024.44 1024.36 1024.04 1023.96 1024.20 1024.36 1024.52 1024.76 1025.04 1025.40 1025.52 1025.40 1025.32 1025.44 1025.48 1025.48 1025.60 1025.68 1025.76 1025.64 1025.44 1025.40 1025.72 1025.76 1025.60 1025.20 1025.00 1024.76 1024.56 1024.32 1024.00 1023.76 1023.36 1023.12 1022.72 1022.48 1023.08 1023.24 1022.36 1022.12 1021.68 1021.88 1021.56 1021.12 1020.48 1020.20 1019.84 1019.88 1019.72 1019.48 1019.12 1018.84 1018.60 1018.52 1018.52 1018.48 1018.40 1018.24 1018.12 1017.96 1017.84 1017.72 1017.68 1017.52 1017.48 1016.92
1023.28 1023.48 1023.84 1024.32 1024.52 1024.48 1024.48 1024.48 1024.52 1024.56 1024.52 1024.44 1024.56 1024.40 1024.28 1024.48 1025.08 1025.40 1025.48 1025.68 1025.56 1025.52 1025.56 1025.48 1025.52 1025.44 1025.32 1025.28 1025.16 1025.04 1025.00 1025.00 1024.96 1024.96 1024.80 1024.68 1024.44 1024.12 1023.80 1023.48 1023.36 1023.12 1022.68 1022.36 1022.88 1023.08 1022.68 1022.56 1022.12 1022.04 1022.04 1021.96 1021.12 1020.28 1020.24 1019.96 1019.64 1019.28 1019.04 1018.72 1018.40 1018.20 1018.12 1017.96 1017.76 1017.64 1017.60 1017.52 1017.44 1017.32 1017.28 1017.20 1017.24 1016.84
1023.12 1023.44 1023.84 1024.32 1025.00 1024.84 1024.84 1024.84 1024.96 1024.96 1025.00 1024.88 1024.80 1024.84 1024.92 1025.28 1025.64 1025.56 1025.28 1025.84 1025.96 1025.52 1025.48 1025.36 1025.20 1025.04 1024.92 1024.88 1024.84 1024.76 1024.68 1024.64 1024.60 1024.64 1024.64 1024.56 1024.40 1024.24 1024.00 1023.76 1023.44 1023.16 1022.76 1022.56 1022.96 1023.20 1022.92 1022.64 1022.40 1022.16 1021.88 1021.72 1021.12 1020.64 1019.96 1019.72 1019.36 1019.16 1018.92 1018.72 1018.40 1018.12 1017.92 1017.72 1017.56 1017.32 1017.12 1017.04 1016.92 1016.84 1016.80 1016.88 1016.92 1016.88
1023.08 1023.48 1023.92 1024.44 1025.20 1025.24 1025.24 1025.28 1025.28 1025.32 1025.36 1025.32 1025.24 1025.88 1026.08 1026.16 1025.96 1025.64 1025.56 1025.40 1025.32 1025.24 1025.16 1025.04 1024.92 1024.80 1024.72 1024.64 1024.60 1024.64 1024.60 1024.56 1024.60 1024.56 1024.28 1024.24 1024.28 1024.16 1024.04 1023.88 1023.76 1023.40 1022.92 1022.64 1023.00 1023.12 1023.08 1022.72 1022.48 1022.20 1021.84 1021.60 1020.84 1020.68 1020.12 1019.68 1019.28 1018.96 1018.76 1018.52 1018.36 1018.16 1018.04 1017.80 1017.52 1017.20 1016.96 1016.64 1016.32 1016.20 1016.32 1016.52 1016.56 1016.60
1023.32 1023.80 1024.24 1024.92 1025.32 1025.28 1025.36 1025.44 1025.52 1025.52 1025.52 1025.52 1025.96 1026.24 1026.20 1026.16 1026.08 1025.72 1025.36 1025.52 1025.36 1025.24 1025.16 1025.16 1024.96 1024.84 1024.76 1024.76 1024.72 1024.68 1024.64 1024.56 1024.56 1024.44 1024.40 1024.40 1024.32 1024.20 1024.04 1023.88 1023.68 1023.40 1023.04 1022.92 1022.96 1022.92 1022.92 1022.64 1022.44 1022.32 1021.84 1021.44 1021.12 1020.60 1020.36 1019.80 1019.20 1019.08 1018.88 1018.52 1018.28 1018.12 1017.88 1017.64 1017.40 1017.16 1016.84 1016.60 1016.24 1016.16 1016.16 1016.04 1016.08 1016.16
1023.52 1023.84 1024.20 1024.92 1025.36 1025.32 1025.48 1025.64 1025.72 1025.68 1025.72 1026.00 1026.28 1026.20 1026.24 1026.12 1025.92 1025.56 1025.48 1025.40 1025.44 1025.44 1025.24 1025.16 1025.00 1024.92 1024.96 1024.92 1024.80 1024.76 1024.84 1024.92 1024.96 1024.96 1024.84 1024.56 1024.32 1024.12 1023.88 1023.72 1023.56 1023.28 1023.08 1023.00 1022.96 1022.84 1022.64 1022.48 1022.20 1022.00 1021.76 1021.48 1021.16 1020.76 1020.28 1019.80 1019.64 1019.36 1019.00 1018.52 1018.32 1018.00 1017.80 1017.56 1017.32 1017.08 1016.84 1016.52 1016.08 1015.72 1015.60 1015.56 1015.44 1015.48
1023.80 1024.44 1024.96 1025.32 1025.44 1025.52 1025.60 1025.72 1025.84 1026.00 1026.24 1026.32 1026.32 1026.36 1026.24 1025.96 1025.52 1025.60 1025.56 1025.56 1025.48 1025.36 1025.40 1025.36 1025.36 1025.20 1025.08 1025.12 1025.28 1025.40 1025.48 1025.36 1025.04 1024.72 1024.56 1024.36 1024.12 1023.88 1023.68 1023.44 1023.24 1023.00 1022.88 1022.72 1022.64 1022.52 1022.32 1022.08 1021.84 1021.64 1021.48 1021.24 1021.08 1020.68 1020.52 1020.16 1019.92 1019.52 1019.28 1019.08 1018.52 1017.88 1017.64 1017.52 1017.32 1017.12 1016.76 1016.48 1016.24 1016.04 1015.84 1015.68 1015.56 1015.48
1024.64 1024.84 1025.16 1025.40 1025.52 1025.52 1025.52 1025.36 1025.44 1025.72 1026.24 1026.40 1026.36 1026.36 1026.12 1025.68 1025.76 1025.76 1025.68 1025.68 1025.72 1025.60 1025.60 1025.60 1025.60 1025.44 1025.48 1025.56 1025.52 1025.52 1025.28 1024.96 1024.64 1024.48 1024.32 1024.12 1023.76 1023.48 1023.20 1022.96 1022.60 1022.32 1022.12 1022.00 1021.92 1021.80 1021.72 1021.64 1021.48 1021.32 1021.20 1021.00 1020.88 1020.64 1020.40 1020.24 1019.84 1019.44 1019.20 1019.00 1018.52 1018.12 1017.84 1017.48 1017.20 1016.92 1016.72 1016.48 1016.28 1016.04 1015.80 1015.68 1015.48 1015.52
1024.88 1025.12 1025.04 1025.16 1025.36 1025.52 1025.72 1025.84 1026.04 1026.12 1026.20 1025.96 1025.88 1025.76 1025.84 1025.92 1025.92 1025.96 1026.00 1026.00 1025.92 1026.00 1026.00 1026.00 1025.96 1025.92 1025.76 1025.56 1025.36 1025.08 1024.92 1024.68 1024.36 1024.20 1024.12 1023.88 1023.48 1023.28 1023.00 1022.92 1022.60 1022.20 1021.80 1021.64 1021.56 1021.44 1021.32 1021.20 1021.12 1021.08 1021.04 1020.76 1020.56 1020.36 1020.16 1020.04 1019.72 1019.28 1018.76 1018.56 1018.56 1018.56 1017.64 1017.48 1017.28 1016.96 1016.68 1016.48 1016.24 1015.92 1015.64 1015.44 1015.28 1015.28
1024.76 1025.16 1025.52 1025.44 1025.40 1025.48 1025.48 1025.52 1025.48 1025.64 1025.76 1025.92 1025.96 1025.96 1025.92 1026.00 1026.16 1026.36 1026.48 1026.40 1026.00 1026.00 1026.12 1026.04 1025.92 1025.76 1025.56 1025.32 1025.04 1024.80 1024.52 1024.20 1024.00 1023.88 1023.80 1023.56 1023.24 1023.00 1022.88 1022.80 1022.52 1022.24 1021.84 1021.60 1021.36 1021.12 1021.08 1020.92 1020.84 1020.72 1020.68 1020.56 1020.40 1020.04 1019.92 1019.76 1019.44 1019.04 1018.64 1018.40 1018.28 1017.88 1017.60 1017.32 1017.00 1016.68 1016.48 1016.36 1016.16 1015.88 1015.56 1015.36 1015.24 1015.08
1024.68 1024.76 1024.76 1024.92 1025.08 1025.16 1025.36 1025.44 1025.48 1025.60 1025.76 1025.92 1026.04 1026.24 1026.12 1025.96 1025.72 1025.68 1025.68 1025.76 1025.84 1025.88 1025.92 1025.80 1025.76 1025.56 1025.28 1025.08 1024.84 1024.60 1024.36 1024.04 1023.80 1023.60 1023.48 1023.32 1023.20 1023.00 1022.88 1022.80 1022.52 1022.20 1021.84 1021.40 1021.16 1020.92 1020.76 1020.64 1020.48 1020.36 1020.20 1020.04 1019.92 1019.80 1019.72 1019.48 1019.00 1018.68 1018.36 1018.04 1017.84 1017.60 1017.32 1017.00 1016.68 1016.44 1016.36 1016.32 1016.12 1015.88 1015.60 1015.36 1015.16 1015.04
1024.24 1024.52 1024.56 1024.80 1024.92 1025.12 1025.20 1025.36 1025.56 1025.76 1025.88 1025.96 1026.00 1026.00 1026.36 1026.16 1025.88 1025.96 1025.80 1025.76 1025.76 1025.92 1025.84 1025.64 1025.48 1025.40 1025.28 1025.08 1024.76 1024.56 1024.36 1024.04 1023.76 1023.48 1023.52 1023.28 1023.08 1023.04 1022.80 1022.60 1022.24 1021.92 1021.76 1021.44 1021.04 1020.76 1020.52 1020.40 1020.20 1020.00 1019.84 1019.64 1019.48 1019.36 1019.28 1019.12 1018.68 1018.40 1018.04 1017.72 1017.48 1017.32 1017.00 1016.76 1016.52 1016.40 1016.44 1016.40 1016.32 1016.00 1015.68 1015.36 1015.08 1014.96
1024.12 1024.36 1024.60 1024.92 1025.08 1025.16 1025.24 1025.40 1025.68 1025.88 1025.92 1026.00 1026.00 1026.00 1026.00 1025.84 1025.96 1026.00 1025.76 1025.80 1025.84 1025.76 1025.64 1025.48 1025.36 1025.20 1025.12 1024.96 1024.80 1024.64 1024.32 1024.08 1023.72 1023.40 1023.24 1023.08 1022.84 1022.68 1022.56 1022.44 1022.12 1021.84 1021.60 1021.28 1020.96 1020.60 1020.44 1020.24 1020.12 1020.00 1019.76 1019.40 1019.00 1018.52 1018.44 1018.44 1018.40 1018.12 1017.92 1017.64 1017.48 1017.28 1016.96 1016.60 1016.48 1016.44 1016.48 1016.40 1016.28 1016.20 1015.84 1015.44 1015.08 1014.76
1024.00 1024.16 1024.48 1024.72 1024.88 1025.12 1025.28 1025.68 1025.88 1025.96 1026.04 1026.08 1026.08 1025.96 1025.84 1025.76 1025.76 1025.88 1025.72 1026.04 1025.88 1025.68 1025.52 1025.32 1025.20 1025.04 1024.92 1024.76 1024.60 1024.40 1024.16 1023.96 1023.64 1023.32 1023.12 1022.88 1022.68 1022.44 1022.28 1022.16 1021.96 1021.64 1021.36 1021.12 1020.80 1020.40 1020.16 1020.08 1020.08 1020.16 1019.96 1019.48 1019.12 1018.52 1017.96 1017.68 1017.92 1017.92 1017.80 1017.52 1017.28 1017.08 1016.76 1016.60 1016.56 1016.52 1016.36 1016.20 1016.08 1016.08 1015.92 1015.60 1015.32 1015.00
1024.00 1024.16 1024.44 1024.68 1025.00 1025.16 1025.36 1025.64 1025.80 1025.96 1026.04 1026.08 1026.04 1025.96 1025.92 1025.80 1025.72 1025.68 1025.84 1025.92 1025.52 1025.40 1025.28 1025.20 1025.04 1024.96 1024.76 1024.52 1024.32 1024.12 1023.96 1023.80 1023.52 1023.28 1023.00 1022.60 1022.36 1022.24 1022.04 1021.80 1021.64 1021.44 1021.20 1020.84 1020.56 1020.28 1020.16 1020.12 1020.00 1020.04 1019.96 1019.52 1019.12 1018.48 1017.72 1017.48 1017.56 1017.60 1017.52 1017.40 1017.20 1017.04 1017.00 1016.92 1016.72 1016.36 1016.12 1016.12 1016.08 1016.08 1016.08 1015.92 1015.56 1015.36
1024.08 1024.24 1024.48 1024.72 1024.96 1025.12 1025.44 1025.68 1025.92 1025.92 1025.96 1026.00 1026.00 1025.92 1025.84 1025.76 1025.68 1025.64 1025.60 1025.36 1025.32 1025.12 1024.96 1024.88 1024.88 1024.72 1024.56 1024.36 1024.28 1024.04 1023.88 1023.68 1023.48 1023.16 1022.80 1022.52 1022.24 1021.96 1021.84 1021.80 1021.52 1021.24 1020.92 1020.60 1020.40 1020.16 1020.00 1019.92 1019.88 1019.76 1019.72 1019.52 1019.16 1018.52 1017.88 1017.16 1017.24 1017.24 1017.36 1017.40 1017.24 1017.00 1016.96 1016.88 1016.56 1016.12 1015.92 1016.04 1016.12 1016.08 1016.16 1015.88 1015.68 1015.80
1024.00 1024.32 1024.60 1024.96 1025.24 1025.40 1025.60 1025.72 1025.80 1025.92 1025.96 1025.92 1025.96 1025.96 1025.92 1025.76 1025.68 1025.60 1025.44 1025.28 1025.16 1025.08 1024.92 1024.84 1024.80 1024.72 1024.48 1024.28 1024.12 1024.04 1023.88 1023.72 1023.52 1023.16 1022.80 1022.44 1022.12 1022.00 1021.84 1021.68 1021.44 1021.04 1020.84 1020.52 1020.16 1019.84 1019.60 1019.48 1019.44 1019.40 1019.36 1019.28 1019.08 1018.64 1018.32 1018.12 1017.68 1017.20 1017.08 1017.16 1017.08 1017.00 1016.76 1016.56 1016.28 1016.08 1016.08 1015.96 1015.76 1015.96 1016.20 1016.20 1016.08 1015.96
1024.16 1024.36 1024.64 1024.92 1025.16 1025.20 1025.40 1025.64 1025.80 1025.84 1025.92 1025.92 1025.92 1025.92 1025.88 1025.80 1025.64 1025.44 1025.24 1025.08 1024.92 1024.88 1024.80 1024.68 1024.68 1024.56 1024.28 1024.12 1024.00 1023.88 1023.80 1023.64 1023.32 1022.96 1022.72 1022.44 1022.16 1022.00 1021.80 1021.52 1021.32 1021.00 1020.76 1020.40 1020.04 1019.60 1019.24 1019.04 1018.96 1018.92 1018.88 1018.80 1018.64 1018.44 1018.32 1018.16 1017.76 1017.28 1016.92 1016.60 1016.64 1016.76 1016.56 1016.40 1016.32 1016.24 1016.08 1015.92 1016.04 1016.04 1015.76 1015.80 1015.68 1015.72
1024.24 1024.48 1024.68 1024.76 1024.96 1025.16 1025.40 1025.60 1025.68 1025.80 1025.80 1025.88 1025.88 1026.00 1025.88 1025.76 1025.52 1025.32 1025.28 1025.20 1025.16 1024.92 1024.64 1024.56 1024.60 1024.52 1024.24 1024.00 1023.88 1023.84 1023.72 1023.44 1023.08 1022.76 1022.52 1022.28 1022.04 1021.80 1021.60 1021.44 1021.08 1020.76 1020.52 1020.12 1019.72 1019.36 1018.96 1018.60 1018.48 1018.56 1018.56 1018.44 1018.36 1018.40 1018.32 1018.08 1017.52 1016.56 1016.20 1015.88 1016.20 1016.48 1016.60 1016.60 1016.52 1016.44 1016.32 1016.16 1016.20 1016.00 1015.76 1015.60 1015.56 1015.56
1024.08 1024.32 1024.60 1024.76 1024.96 1025.20 1025.36 1025.56 1025.64 1025.68 1025.76 1025.84 1025.84 1025.76 1025.68 1025.44 1025.16 1025.52 1025.16 1025.04 1025.08 1024.96 1024.68 1024.56 1024.48 1024.28 1024.08 1023.88 1023.72 1023.56 1023.44 1023.20 1022.88 1022.60 1022.36 1022.12 1021.84 1021.56 1021.28 1021.04 1020.76 1020.40 1020.24 1019.88 1019.44 1019.12 1018.68 1018.44 1018.24 1018.16 1018.12 1018.20 1018.24 1018.24 1017.76 1017.28 1016.88 1016.48 1016.28 1016.04 1016.00 1016.36 1016.56 1016.52 1016.36 1016.24 1016.24 1016.24 1016.20 1015.96 1015.80 1015.68 1015.56 1015.44
1024.24 1024.36 1024.60 1024.84 1025.08 1025.28 1025.40 1025.60 1025.64 1025.68 1025.72 1025.80 1025.76 1025.80 1025.48 1025.16 1025.00 1024.96 1024.76 1024.76 1024.76 1024.72 1024.56 1024.48 1024.32 1024.16 1023.96 1023.84 1023.68 1023.52 1023.28 1022.92 1022.68 1022.44 1022.20 1021.96 1021.76 1021.52 1021.20 1020.80 1020.52 1020.20 1019.92 1019.52 1019.12 1018.84 1018.48 1018.16 1017.88 1017.72 1017.64 1017.64 1017.64 1017.64 1017.40 1016.92 1016.72 1016.60 1016.32 1016.00 1016.08 1016.36 1016.52 1016.60 1016.40 1016.12 1016.16 1016.24 1016.24 1016.12 1015.92 1015.80 1015.48 1015.16
1024.16 1024.40 1024.64 1024.96 1025.20 1025.44 1025.56 1025.56 1025.60 1025.72 1025.80 1025.72 1025.64 1025.48 1025.32 1025.24 1025.12 1025.08 1024.96 1024.92 1024.88 1024.68 1024.56 1024.44 1024.32 1024.12 1024.00 1023.84 1023.76 1023.52 1023.20 1022.84 1022.60 1022.36 1022.08 1021.80 1021.56 1021.32 1021.04 1020.64 1020.28 1019.96 1019.64 1019.32 1018.96 1018.52 1018.08 1017.84 1017.60 1017.40 1017.24 1017.00 1016.88 1016.96 1016.92 1016.88 1016.64 1016.32 1016.20 1016.32 1016.48 1016.48 1016.56 1016.56 1016.52 1016.44 1016.36 1016.44 1016.40 1016.20 1016.08 1016.00 1015.96 1015.96
1024.20 1024.44 1024.72 1025.04 1025.24 1025.44 1025.52 1025.56 1025.60 1025.76 1025.80 1025.68 1025.52 1025.52 1025.48 1025.32 1025.28 1025.16 1025.08 1025.20 1025.12 1025.16 1024.96 1024.72 1024.56 1024.32 1024.16 1023.96 1023.76 1023.52 1023.16 1022.92 1022.60 1022.20 1021.88 1021.60 1021.28 1021.04 1020.76 1020.44 1020.04 1019.72 1019.44 1019.16 1018.92 1018.36 1017.88 1017.64 1017.36 1017.16 1017.00 1016.84 1016.80 1016.88 1016.84 1016.84 1016.68 1016.56 1016.44 1016.56 1016.68 1016.60 1016.60 1016.68 1016.60 1016.60 1016.60 1016.68 1016.76 1016.48 1016.28 1016.20 1016.20 1016.20
Wind_Speed
4 5 5 5 4 4 3 4 4 4 4 4 2 0 2 3 6 6 5 4 3 6 6 4 6 7 7 6 5 6 7 8 7 7 7 7 8 10 13 13 14 13 13 12 11 11 11 12 13 12 13 13 13 12 12 11 11 10 10 10 10 10 8 8 9 9 12 14 14 14 10 10 13 14
4 4 4 4 5 3 4 4 3 4 4 4 4 3 2 0 3 5 6 4 3 3 4 5 4 6 6 5 6 5 7 9 7 7 7 7 6 9 12 12 12 12 12 12 12 11 11 12 12 12 12 12 12 11 11 12 11 11 10 8 8 9 8 8 9 10 11 12 12 12 12 11 11 12
3 5 5 5 5 4 5 4 4 3 3 4 5 5 4 3 3 5 6 6 3 2 3 3 4 4 6 5 5 5 5 8 7 6 6 7 4 4 11 13 12 12 12 12 12 13 12 11 11 11 12 12 11 11 10 11 10 10 9 11 10 10 10 9 9 9 9 11 12 12 11 11 11 11
3 5 5 5 5 4 5 5 4 4 3 3 4 5 5 5 4 3 4 6 5 2 3 2 3 2 3 5 5 6 4 5 7 6 5 6 5 6 5 12 12 10 11 11 11 12 12 11 12 10 10 10 11 11 11 10 9 8 9 10 9 9 10 9 9 10 9 9 10 10 9 8 8 9
3 4 4 4 3 3 4 4 4 4 4 4 3 3 4 5 3 4 5 6 6 3 1 1 2 3 2 4 5 6 5 5 5 5 5 5 5 5 4 4 11 9 9 9 10 10 11 11 11 11 11 10 10 11 11 11 10 8 8 9 10 10 9 9 9 8 9 9 10 9 10 8 8 7
2 3 4 4 4 2 4 4 5 5 4 4 5 4 4 4 4 2 4 5 4 5 3 2 1 2 3 3 5 5 5 4 4 5 4 4 5 5 5 4 5 9 6 7 8 9 10 10 11 11 10 10 10 10 10 10 10 9 8 9 9 9 10 9 8 6 8 8 8 9 9 9 8 8
2 3 4 4 4 2 4 3 3 3 3 3 5 5 3 5 4 3 2 4 5 5 3 1 2 2 2 3 4 5 3 3 3 4 4 3 3 4 5 4 3 8 5 5 6 7 7 8 10 10 10 10 10 9 10 10 10 10 9 9 9 9 8 8 8 8 8 8 8 8 8 8 9 10
3 3 3 3 4 4 5 4 4 3 3 3 4 5 4 4 4 3 3 3 4 4 4 2 1 2 1 2 3 3 2 3 3 4 3 2 3 4 4 4 5 4 2 2 4 6 6 6 8 9 9 10 10 9 8 8 9 9 9 9 10 10 10 9 9 9 10 10 9 9 9 8 9 9
3 5 6 5 5 5 5 5 5 4 4 3 4 4 4 4 4 3 2 3 3 3 4 3 1 0 1 2 2 4 4 3 2 3 4 3 4 5 4 4 4 4 5 6 3 3 6 4 7 8 8 10 9 9 8 8 8 8 8 8 8 9 10 10 10 10 10 10 10 11 10 10 10 11
6 6 7 6 6 6 6 5 5 5 6 4 4 4 4 4 4 3 3 3 3 3 3 2 2 1 2 0 1 3 3 3 4 4 4 3 2 5 6 5 4 4 3 4 4 4 6 8 9 7 8 10 9 8 9 8 8 7 7 7 8 9 9 8 10 10 10 10 10 10 11 11 11 11
6 5 6 7 7 7 7 5 5 5 5 5 6 5 4 4 4 4 3 3 3 2 2 2 2 1 1 2 2 2 2 1 2 5 7 6 4 4 6 7 5 3 3 3 5 5 6 9 9 8 9 9 9 9 9 9 7 7 7 8 9 9 7 6 9 11 10 9 10 10 10 10 13 13
6 7 8 8 8 5 7 7 5 6 6 5 5 5 5 5 5 4 4 3 2 2 2 2 2 1 2 1 2 2 2 3 2 4 5 7 8 8 6 5 5 4 4 6 7 5 5 6 6 8 10 10 5 9 9 7 6 5 6 9 10 10 7 5 6 7 9 9 9 9 9 9 10 12
6 6 7 9 9 12 12 12 9 9 7 6 6 5 5 5 5 4 3 3 2 2 1 1 1 2 2 2 4 4 4 5 5 4 4 6 6 7 8 6 1 2 5 7 7 6 4 6 6 5 5 4 7 5 6 6 3 8 10 10 10 10 8 6 6 7 8 9 9 10 10 10 10 10
5 6 7 7 9 11 11 10 9 8 8 8 5 7 7 6 5 4 3 2 1 1 0 2 3 3 3 3 3 4 3 3 3 4 5 6 7 7 7 5 1 2 5 8 8 7 4 5 6 5 5 4 4 5 5 5 9 11 11 10 10 10 9 7 7 8 10 10 10 9 10 10 11 11
5 4 5 5 6 8 7 7 8 7 6 3 2 6 5 2 3 4 3 2 1 1 1 1 1 1 3 2 3 3 4 4 4 4 5 5 6 6 8 8 4 2 7 8 9 8 4 4 6 6 5 4 4 4 5 9 11 10 10 10 10 11 10 9 7 7 9 10 11 11 11 11 11 11
5 5 3 2 1 2 4 4 6 7 7 7 9 10 9 8 9 9 4 2 2 2 1 1 0 2 2 3 3 3 4 5 5 5 5 5 5 7 7 7 7 6 7 9 9 9 5 5 6 6 5 4 4 4 7 10 11 11 10 10 10 10 10 9 9 8 8 10 10 11 11 11 11 11
4 3 3 2 0 1 7 6 6 7 8 10 12 13 12 11 10 10 11 10 4 2 2 1 1 1 2 3 2 3 4 4 6 5 5 5 5 6 7 7 8 8 8 9 9 10 8 6 6 8 6 5 5 6 6 5 9 12 11 10 10 10 10 10 10 9 8 8 11 11 12 11 11 11
3 3 3 2 1 3 5 5 8 9 10 10 9 7 6 6 8 10 10 9 9 6 2 1 0 1 1 3 3 2 3 4 5 5 6 6 7 7 8 9 10 9 7 7 9 10 8 6 7 8 7 6 7 7 7 7 11 12 10 9 9 10 10 10 10 10 10 9 10 11 11 11 11 11
3 3 2 2 2 3 3 4 7 9 9 8 7 7 6 6 5 5 4 4 3 3 2 2 1 1 1 1 2 3 3 3 4 4 6 7 8 9 10 10 8 7 4 6 8 10 9 7 8 8 8 8 8 8 8 7 9 10 9 8 9 9 9 10 11 11 11 11 11 11 11 11 12 11
3 3 2 2 3 4 5 7 7 7 8 8 8 7 6 6 5 5 5 6 6 4 2 2 1 1 2 3 3 4 4 4 4 4 5 6 7 7 7 8 6 6 4 7 9 10 9 7 9 9 9 9 9 8 8 8 8 6 6 8 9 9 10 11 12 12 13 13 13 12 11 11 12 12
5 4 4 3 4 6 6 6 7 6 7 6 7 6 6 4 4 4 4 4 4 4 4 4 3 3 0 3 4 5 5 4 5 5 6 6 5 7 8 7 6 6 6 7 8 9 11 9 9 10 9 9 10 9 8 7 6 2 7 9 10 10 11 12 13 13 12 13 14 14 13 12 11 13
6 8 11 6 6 7 6 6 5 4 4 5 5 6 6 5 4 4 3 3 3 3 3 4 3 3 3 4 6 7 5 5 6 5 7 7 6 7 7 8 8 8 8 6 4 8 10 11 11 12 11 11 8 8 7 7 7 9 10 12 11 12 11 12 14 14 13 14 14 13 12 12 12 10
5 6 8 12 9 8 7 8 7 6 3 4 3 4 5 4 4 3 2 1 1 1 1 2 1 5 7 4 4 2 5 6 7 5 6 6 6 7 8 8 9 9 5 5 7 10 10 11 10 10 11 11 9 8 7 8 10 10 10 10 10 11 9 11 14 14 14 13 13 12 11 11 9 8
5 6 6 7 9 9 10 10 10 9 8 5 3 1 2 3 4 3 2 3 2 1 1 3 3 4 4 4 4 4 4 4 4 5 5 5 7 9 10 10 10 11 10 9 8 10 11 10 11 9 9 11 10 9 10 11 10 10 10 11 11 12 12 12 12 12 12 12 12 12 11 10 7 7
5 4 4 5 6 9 10 11 11 11 10 8 5 4 4 5 4 1 1 3 2 2 3 4 4 4 4 4 4 4 4 4 4 4 5 7 8 9 10 10 11 12 11 10 6 9 11 10 12 10 10 10 12 12 11 11 11 11 11 11 11 11 10 10 10 11 12 11 12 12 11 8 6 5
4 4 5 5 6 9 11 11 11 11 9 8 7 7 7 5 2 2 1 2 2 3 4 4 5 5 5 5 5 5 5 5 4 7 8 8 8 8 9 10 11 12 11 10 8 10 11 11 10 11 11 11 12 11 13 11 11 11 10 10 10 10 10 10 10 10 10 10 10 9 7 5 8 8
5 5 6 6 7 9 10 10 10 9 10 10 8 8 7 6 2 2 2 3 3 4 4 5 5 5 5 5 5 5 5 6 7 8 9 9 9 9 9 10 11 12 12 11 11 11 10 11 10 11 12 12 13 12 12 12 10 9 10 10 11 10 10 10 10 10 10 10 10 11 9 12 12 10
5 6 6 7 9 10 11 11 11 11 10 8 8 7 6 4 2 3 3 3 4 4 4 5 5 5 5 5 6 7 7 8 9 8 8 8 9 9 9 10 11 11 12 11 10 10 10 11 11 11 12 12 13 13 13 11 11 11 11 11 11 11 10 10 10 9 10 10 10 9 8 8 6 6
5 9 12 12 11 12 13 13 12 10 9 9 7 6 2 1 3 3 3 4 4 4 4 5 5 5 6 7 7 7 8 9 9 8 7 7 8 9 9 9 10 10 9 9 9 10 10 11 11 11 11 11 12 12 11 12 11 12 11 12 12 10 10 10 10 10 10 9 8 8 8 8 8 8
13 13 13 14 13 10 8 6 5 6 6 7 6 4 2 3 3 4 4 4 4 4 5 6 7 7 7 6 7 8 8 8 7 7 7 8 8 8 8 9 9 9 9 9 9 9 10 10 11 11 11 11 11 12 11 11 12 11 11 11 12 12 10 9 8 8 9 9 9 9 8 9 10 9
8 9 8 8 9 9 11 10 8 7 5 4 2 2 3 3 3 3 4 4 5 5 5 6 6 6 6 7 7 7 7 7 7 7 8 8 8 8 8 9 10 10 10 9 9 9 9 9 10 10 11 11 11 11 11 11 12 12 11 10 10 11 10 10 10 10 10 9 10 11 11 10 9 7
8 8 10 10 7 7 6 5 3 3 3 2 2 3 3 3 3 2 3 4 4 4 5 5 5 6 6 6 7 7 7 7 7 7 8 8 9 9 9 9 9 10 11 10 9 9 9 9 9 9 10 10 11 11 10 11 11 12 12 11 11 11 11 11 11 10 10 10 10 10 10 10 9 8
8 8 7 4 5 4 3 2 2 2 2 2 2 2 3 2 4 5 6 5 5 5 5 5 5 5 6 7 7 7 7 8 8 7 8 8 9 9 8 9 9 10 11 11 10 9 8 9 9 10 10 11 12 12 12 12 12 11 11 11 10 10 10 9 10 10 10 9 9 10 11 10 9 8
7 5 4 3 3 2 2 2 2 1 1 1 1 1 1 2 4 4 5 5 5 5 5 5 5 5 6 6 7 7 8 8 8 8 8 9 8 8 8 9 9 9 10 11 11 10 9 9 9 9 9 10 10 11 11 12 12 10 10 10 9 10 9 9 9 9 9 8 9 10 10 9 8 7
6 5 4 3 3 2 2 2 2 1 1 1 1 1 2 2 2 2 4 5 4 3 4 5 5 5 6 6 7 7 8 8 9 8 7 8 8 8 8 9 10 10 10 10 10 9 9 9 9 9 9 9 9 9 10 11 11 10 9 8 8 8 9 8 8 8 8 8 8 8 8 9 8 7
5 4 3 3 2 2 2 2 1 1 1 1 1 2 2 3 3 3 4 4 5 4 5 5 5 6 6 7 7 8 8 8 8 8 8 8 8 8 8 9 10 10 10 10 10 9 9 9 8 9 9 9 9 9 6 10 11 7 8 7 7 7 8 8 9 9 8 8 7 7 7 7 8 7
5 4 3 3 2 2 2 2 1 1 1 1 1 2 2 3 4 4 3 2 5 4 5 5 6 6 7 7 8 7 8 8 8 8 9 8 8 8 8 9 9 10 10 10 9 10 9 9 8 8 8 8 9 10 9 3 10 13 8 8 8 7 7 8 9 9 8 7 7 7 6 6 6 3
4 3 3 3 4 3 2 1 1 0 0 0 1 2 2 3 4 4 4 5 4 5 6 6 7 7 7 7 8 8 8 8 8 9 9 9 8 8 8 9 10 10 10 11 10 9 9 9 9 8 7 8 9 10 10 6 5 4 8 6 8 8 7 8 9 9 7 6 7 6 5 5 3 2
5 4 3 3 4 4 2 2 1 1 0 1 1 2 2 3 2 3 2 3 5 6 6 7 8 8 8 8 8 8 8 8 9 9 9 9 9 9 9 9 10 10 10 11 10 9 9 9 8 8 8 8 8 8 8 10 10 9 7 8 9 10 9 9 9 8 7 6 5 4 1 0 1 1
5 5 5 5 4 3 3 2 1 1 0 0 1 2 3 2 3 3 3 3 4 3 4 7 8 9 8 9 8 8 8 9 9 9 9 9 9 9 8 8 9 10 10 10 10 9 9 9 8 8 7 8 9 8 9 9 11 10 10 10 13 12 8 7 8 8 7 6 5 4 3 1 1 1
6 3 3 4 4 3 2 2 1 0 0 1 2 2 2 2 2 3 3 3 4 4 4 6 7 8 9 9 8 8 8 9 9 9 9 9 9 9 10 10 9 8 9 10 10 10 10 8 8 6 7 8 7 5 6 6 7 7 6 5 4 2 4 5 7 6 6 5 4 3 3 2 1 0
5 3 3 2 2 3 3 2 1 0 0 1 1 2 2 2 2 4 4 2 3 3 5 7 7 8 8 8 8 9 9 9 9 9 9 9 10 10 10 9 9 9 9 10 10 10 10 10 9 8 7 5 4 4 5 7 7 7 6 6 2 4 6 9 7 10 8 4 3 2 2 2 1 1
4 3 3 3 2 2 2 1 0 0 0 1 1 2 3 3 4 4 4 4 3 4 6 7 7 8 8 8 8 8 9 10 9 10 10 9 9 9 9 9 9 9 9 10 10 9 9 8 8 6 5 4 5 5 6 6 6 6 6 4 3 2 2 7 11 8 6 7 5 3 3 3 2 1
3 3 3 2 2 2 2 1 0 0 1 1 2 2 3 4 4 4 4 4 4 4 6 6 7 7 8 8 8 8 8 9 9 10 10 10 9 9 9 9 9 9 9 9 8 8 7 6 6 6 6 5 4 4 5 6 5 4 4 4 3 2 2 2 2 3 5 10 11 6 5 2 2 3
3 2 2 2 2 2 1 1 0 0 1 1 2 2 3 3 4 4 3 3 3 5 6 6 7 7 8 8 9 9 9 9 9 9 9 9 9 9 9 9 9 9 8 8 8 8 6 6 6 5 5 5 4 4 4 4 4 4 3 2 1 2 2 3 3 4 5 6 10 10 11 12 14 16
Wind_Direction
93 88 81 87 89 79 70 71 66 59 58 75 90 253 159 144 138 139 110 77 73 54 25 47 51 37 46 42 41 48 46 18 7 61 63 60 56 39 45 42 45 42 41 39 40 39 37 33 30 27 30 31 30 27 26 20 16 15 14 6 350 346 329 305 292 287 286 284 280 286 282 261 245 213
102 101 99 98 100 91 88 76 53 54 49 54 64 82 98 219 136 131 126 104 55 75 60 36 50 40 40 45 45 45 51 20 24 46 60 60 57 71 52 48 45 42 39 37 35 37 34 31 24 19 21 21 21 21 23 26 23 21 23 15 5 2 357 340 331 312 299 290 285 282 284 279 264 245
116 120 115 115 114 117 107 99 83 64 58 65 68 63 56 59 103 126 129 125 81 4 60 58 45 47 38 34 44 46 46 26 18 49 46 49 16 52 63 47 43 41 39 36 32 31 30 27 23 15 15 14 14 13 17 21 21 23 22 23 18 14 7 358 345 329 312 302 297 290 280 274 269 258
131 130 131 131 130 134 128 116 105 95 74 59 73 73 77 75 63 85 88 95 110 73 50 65 70 55 53 30 38 43 39 50 25 44 46 36 4 33 61 67 39 35 35 33 30 28 25 21 21 14 9 7 7 8 9 11 14 19 23 21 15 8 5 2 358 347 330 313 306 307 304 294 283 269
153 140 133 134 130 147 132 125 126 118 112 100 86 73 82 85 72 83 101 107 119 126 87 53 56 40 324 59 30 41 41 28 32 36 43 34 34 31 21 58 64 31 31 27 25 24 20 18 14 11 9 7 4 4 2 3 5 7 10 13 10 4 1 358 355 347 341 329 319 316 311 303 291 277
162 163 159 150 152 179 139 146 141 135 138 127 114 98 91 93 86 24 88 96 105 117 157 133 104 80 12 58 42 43 30 35 17 33 31 39 30 30 11 5 65 50 23 21 24 16 14 11 4 2 1 359 358 357 356 355 357 357 355 359 360 359 356 350 347 332 334 330 325 320 311 308 304 295
172 192 188 175 170 171 160 153 131 140 137 118 106 104 95 94 88 82 89 112 105 117 115 169 117 69 65 35 31 28 38 30 18 22 32 22 33 25 12 7 357 74 5 21 13 9 3 3 359 352 350 347 347 347 347 348 347 347 349 349 353 352 346 343 340 340 335 326 319 314 312 310 304 295
193 226 228 209 191 185 178 168 161 162 143 136 123 121 116 108 96 83 78 77 104 118 124 137 67 83 55 87 40 19 16 22 15 17 9 15 18 8 7 358 350 51 30 335 353 355 340 347 352 341 336 335 335 335 336 338 336 338 339 343 346 343 338 336 337 338 338 335 324 310 301 298 295 289
232 239 240 230 207 201 199 176 181 165 164 153 146 138 131 127 121 111 93 94 97 106 101 126 120 147 120 71 67 26 4 11 11 3 354 349 353 0 356 341 345 326 195 212 230 324 306 323 341 323 325 322 322 323 323 322 324 326 329 337 340 334 331 333 341 341 338 334 329 323 312 300 291 287
202 215 237 247 231 219 214 199 183 171 170 163 167 159 157 140 132 117 106 100 92 92 89 76 129 118 23 25 81 29 5 2 358 359 357 332 337 345 344 347 342 337 344 335 338 316 313 338 320 310 316 307 305 312 311 309 310 316 322 331 332 327 326 338 341 336 332 330 329 327 324 316 301 290
227 209 214 234 234 227 238 219 187 178 177 179 177 164 153 152 147 144 135 128 111 86 86 99 58 45 107 10 5 31 349 360 33 7 347 342 346 340 341 332 339 336 325 300 218 263 289 292 291 309 288 285 286 297 301 296 296 310 322 331 328 324 324 340 339 335 331 325 323 323 322 320 316 308
220 215 224 229 233 238 234 239 204 184 184 182 178 171 172 172 168 157 153 154 132 104 79 35 31 33 350 8 356 333 319 349 17 26 352 332 331 331 330 317 323 342 330 323 323 305 284 295 273 248 244 229 255 284 285 295 299 308 342 333 323 321 315 318 325 324 328 325 318 316 314 312 311 312
222 224 223 226 208 213 222 219 217 201 191 174 178 179 178 175 181 164 157 146 126 122 76 93 73 344 339 8 353 347 351 359 347 339 334 317 321 321 318 325 342 358 335 326 318 313 319 318 322 320 323 343 328 299 277 282 308 351 336 325 319 317 310 298 305 313 314 315 316 315 314 313 311 308
247 236 233 226 203 202 211 210 215 215 201 198 202 174 180 179 182 173 157 151 123 59 25 33 358 337 345 358 358 335 337 327 319 323 330 324 326 320 316 313 120 3 343 332 321 316 308 312 313 314 315 328 315 322 306 1 339 320 316 314 314 312 308 296 299 309 312 314 313 313 314 314 312 308
278 254 241 242 191 193 197 205 208 195 193 212 130 113 96 82 160 171 149 120 100 60 45 89 347 326 321 347 342 324 325 314 327 328 324 319 323 329 331 323 327 120 358 334 318 313 321 305 312 315 308 313 309 311 320 336 309 304 307 308 306 306 303 301 302 303 307 309 310 311 312 311 309 307
293 291 288 274 262 224 203 171 141 141 145 115 101 93 86 75 51 34 40 125 140 124 135 149 103 318 321 333 321 329 325 326 320 320 316 317 324 319 314 307 305 332 354 326 313 305 311 306 303 302 298 294 295 302 297 287 293 301 303 303 301 298 295 295 298 300 302 303 300 299 300 303 303 302
313 305 293 283 207 123 123 142 144 129 115 110 111 104 92 72 68 66 54 37 35 127 115 110 175 272 334 306 334 358 321 310 303 315 314 323 316 308 298 299 308 314 330 309 303 304 310 306 307 304 303 298 298 290 246 266 293 295 298 298 296 293 290 290 292 291 290 292 295 295 295 292 292 295
338 329 315 311 126 122 146 147 148 145 138 135 126 117 104 98 86 78 74 72 56 47 74 92 260 133 295 316 340 327 294 304 316 319 312 317 308 303 300 307 300 300 302 302 310 299 303 321 311 300 305 312 305 294 302 283 277 284 291 293 291 287 284 282 287 293 296 290 285 285 286 288 290 294
12 2 1 5 69 106 130 136 145 142 136 124 114 107 99 96 92 85 83 76 83 83 77 89 83 94 130 312 294 288 294 292 299 305 300 299 296 295 292 281 272 282 282 298 303 295 309 311 303 300 307 309 302 299 299 278 274 278 287 291 287 281 279 286 295 298 298 297 294 290 289 291 292 291
37 34 44 82 89 96 105 91 105 116 123 119 117 113 113 108 95 78 50 33 33 35 50 76 72 72 53 355 328 335 324 307 295 281 271 268 278 288 295 297 298 291 299 310 305 298 298 308 302 306 308 304 299 307 301 299 279 279 283 285 282 280 286 293 294 295 299 301 299 292 290 292 294 292
56 44 40 70 95 97 95 79 97 110 128 125 125 124 121 115 114 111 108 82 69 54 49 45 41 15 3 241 248 254 259 286 310 298 289 288 312 304 297 295 298 296 312 305 302 294 295 304 309 305 304 305 306 299 296 303 308 306 276 270 270 279 290 290 288 290 291 292 293 296 298 297 295 291
69 55 32 34 97 94 101 101 108 124 138 132 134 133 133 134 127 122 135 155 144 161 173 178 195 194 190 227 228 225 218 220 250 296 296 312 304 293 296 298 305 304 300 305 321 294 291 305 306 305 304 302 292 301 302 306 302 294 281 279 281 275 270 277 283 286 287 287 287 288 293 296 302 296
87 80 57 42 49 77 94 82 65 27 20 108 114 130 136 135 124 103 110 109 119 136 194 197 200 200 200 224 282 253 188 216 232 267 284 295 295 296 300 300 303 301 291 315 319 297 298 307 306 309 310 303 303 297 300 304 303 297 290 289 286 281 276 274 279 280 278 278 280 282 284 289 294 302
99 98 95 77 71 86 83 81 76 64 57 91 94 110 114 111 106 116 100 49 2 21 302 303 280 281 288 284 278 289 289 277 278 276 280 286 292 294 294 296 295 291 296 305 307 296 295 297 297 304 297 300 300 304 301 297 293 293 296 295 292 294 289 273 259 254 249 255 269 272 270 275 284 305
130 122 99 99 65 79 85 85 81 75 58 47 71 58 70 57 57 348 114 120 224 301 304 293 293 298 303 300 293 293 291 294 298 296 294 293 291 291 291 291 291 285 290 298 344 289 293 296 295 297 292 287 287 294 294 295 294 294 295 294 293 295 298 300 300 296 295 277 261 252 246 251 248 277
140 126 122 111 86 82 81 80 81 79 74 67 80 71 79 84 76 49 54 350 329 319 311 315 312 312 311 309 309 308 306 306 310 307 304 298 294 288 284 284 285 285 286 298 321 291 290 288 289 294 290 289 287 288 294 293 296 297 296 293 293 295 296 295 296 296 294 292 292 293 319 308 278 255
128 118 114 103 99 95 92 90 90 92 93 85 86 96 93 91 126 253 14 349 323 327 321 317 313 314 317 320 317 316 313 314 312 310 309 303 296 290 285 281 278 278 285 290 289 286 281 281 283 282 285 286 288 289 285 291 296 303 297 295 296 296 295 295 294 293 292 292 291 291 259 238 233 245
122 131 122 114 113 104 99 92 81 71 70 88 92 88 90 100 46 7 346 340 342 320 317 317 319 321 324 315 315 319 318 314 312 308 303 298 295 293 291 288 283 281 287 290 289 283 279 280 282 277 277 281 283 286 290 292 292 292 294 299 298 296 295 294 293 294 293 290 290 287 295 301 287 270
104 92 103 113 111 107 104 106 105 92 85 86 85 80 66 312 17 9 358 345 338 331 332 329 321 315 318 322 315 312 309 305 301 299 300 299 298 295 292 288 283 281 278 277 276 274 277 282 281 281 278 277 278 281 285 288 293 292 295 299 296 298 301 300 296 291 289 292 296 299 296 294 290 295
108 114 112 113 116 118 122 122 98 91 90 89 94 89 3 25 22 4 359 352 344 337 330 324 317 317 317 314 314 307 302 303 307 311 308 309 307 307 306 304 298 296 290 285 284 282 280 279 279 280 281 278 277 280 283 288 287 289 290 287 291 296 289 291 294 294 295 293 290 289 286 285 286 292
113 118 120 103 91 91 81 86 98 112 148 150 128 54 34 26 16 17 10 359 342 335 327 321 314 313 310 308 306 308 312 309 310 312 307 305 308 310 309 306 302 302 301 301 295 289 285 283 282 284 282 281 278 276 282 283 284 287 287 288 290 287 296 299 294 291 292 290 290 287 283 280 281 273
118 115 112 118 123 127 128 132 121 96 78 71 49 26 19 24 26 17 199 239 339 330 326 313 308 306 309 311 315 314 312 313 313 314 309 307 307 309 311 306 303 304 303 302 298 293 287 283 282 278 275 277 280 283 282 277 277 281 284 286 284 284 289 293 295 297 296 298 292 287 285 285 289 291
133 137 136 131 133 130 122 116 107 90 73 52 54 45 7 359 356 352 353 350 344 340 328 325 320 316 317 316 316 315 313 313 314 314 312 309 307 305 301 294 294 298 302 304 304 301 295 289 282 280 279 278 277 277 278 278 272 273 279 284 288 288 292 291 296 300 305 299 293 293 292 292 291 289
140 145 142 139 133 130 124 113 103 87 59 38 21 35 28 333 4 351 347 343 339 333 326 326 323 320 318 314 319 318 315 314 313 315 309 305 303 298 297 297 295 296 297 298 301 300 300 296 293 288 285 280 275 269 266 268 274 280 282 288 288 292 294 298 296 302 309 308 306 299 298 300 297 292
141 144 142 132 125 120 113 97 88 71 60 29 3 8 351 359 354 339 345 347 334 327 325 326 322 320 318 317 318 315 311 310 311 312 310 303 299 297 298 297 298 298 298 298 298 300 300 298 297 295 292 290 285 276 247 245 266 268 283 285 292 290 294 297 303 307 312 307 303 304 304 300 296 299
146 149 146 146 133 129 120 105 96 91 48 32 358 349 348 353 358 341 351 350 330 332 331 333 328 327 326 324 322 317 314 314 312 313 311 306 304 302 300 295 296 297 297 295 294 297 299 298 297 294 295 297 297 295 292 203 216 265 278 289 290 292 297 304 310 309 305 304 304 306 307 306 304 309
146 146 146 142 140 140 125 125 113 88 56 25 356 350 344 346 351 345 354 304 342 340 343 334 336 331 327 329 326 322 320 318 316 313 306 306 306 305 304 303 302 301 299 295 295 294 294 291 289 288 289 291 292 292 289 304 210 216 262 283 291 294 300 304 299 294 294 306 311 313 309 301 295 338
150 148 147 143 145 133 122 127 134 132 88 28 1 350 348 343 347 343 329 339 348 343 349 348 344 338 334 333 327 325 324 319 312 307 307 308 309 311 312 308 307 303 301 298 296 292 287 282 281 279 279 280 289 290 298 301 310 235 211 248 283 291 294 290 288 288 294 298 295 306 310 298 313 48
153 151 146 145 144 147 150 147 141 119 77 31 8 356 342 338 333 321 318 341 349 348 348 349 348 343 337 336 329 323 318 314 308 306 308 311 313 313 311 307 302 301 301 299 297 293 289 282 277 273 270 275 275 286 297 301 293 294 265 230 272 278 279 282 286 289 290 292 297 300 285 232 143 238
145 148 147 146 152 152 146 143 144 135 103 16 3 359 341 327 323 324 326 330 340 322 332 347 347 344 344 340 328 320 310 305 306 308 309 309 310 305 302 301 299 297 295 294 295 294 291 287 281 279 278 275 282 283 288 286 285 282 282 275 237 239 265 284 282 287 288 285 292 291 290 259 278 15
153 149 147 150 146 146 143 149 143 132 72 2 340 335 317 311 310 345 337 332 327 325 335 343 346 342 340 334 325 318 311 308 308 310 310 309 305 303 298 296 294 294 294 293 295 294 293 296 295 273 266 278 274 279 271 264 272 287 299 312 81 108 316 283 268 264 264 284 290 288 295 303 313 321
154 146 145 152 146 142 142 143 145 111 39 352 330 325 310 314 345 307 297 299 312 321 341 343 340 337 332 326 324 324 319 312 311 313 312 311 310 307 303 303 300 302 300 296 298 296 297 300 299 292 288 281 271 250 264 276 291 301 308 307 299 97 27 353 295 252 248 258 264 272 269 250 242 241
150 146 146 139 139 148 141 141 137 62 358 328 311 309 320 344 344 342 343 342 338 341 347 342 339 336 331 325 321 319 316 320 319 315 312 308 307 304 303 303 302 303 301 297 295 295 297 302 303 299 287 271 261 254 272 289 295 298 302 312 342 342 16 29 32 56 66 45 13 321 304 313 297 327
147 144 141 144 147 144 143 135 82 37 319 301 307 321 347 344 343 339 339 341 335 339 342 334 330 329 327 324 319 315 315 318 317 313 311 309 305 302 300 300 301 302 302 299 299 300 303 306 301 298 294 290 286 272 278 288 291 305 317 327 331 347 16 13 19 42 55 37 15 360 7 6 77 60
142 138 138 141 141 144 142 124 69 343 291 311 331 346 339 338 340 334 338 332 333 330 327 326 323 323 324 324 323 318 315 310 308 311 310 307 306 305 302 302 305 308 306 305 302 302 310 312 309 302 293 289 284 278 283 282 295 311 316 342 10 35 28 21 32 45 40 42 20 40 72 82 88 90